Regional Weather Roundup
Issued by NWS Charleston, WV

Home | Current Version | Previous Version | Graphics & Text | Print | Product List | Glossary On
Versions: 1 2 3 4 5 6 7 8 9 10 11 12 13 14 15 16 17 18 19 20 21 22 23 24 25 26 27 28 29 30 31 32 33 34 35 36 37 38 39 40 41 42 43 44 45 46 47 48 49 50
057
ASUS41 KRLX 240910
RWRRLX
West Virginia Regional Weather Roundup
National Weather Service Charleston WV
500 AM EDT SAT JUN 24 2017

Note: "fair" indicates few or no clouds below 12,000 feet with no
significant weather and/or obstructions to visibility.

WVZ003-241000-
Northern Panhandle of West Virginia

CITY           SKY/WX    TMP DP  RH WIND       PRES   REMARKS
WHEELING       CLOUDY    66  64  93 W7        29.81R
$$

WVZ009-241000-
Northwest West Virginia

CITY           SKY/WX    TMP DP  RH WIND       PRES   REMARKS
PARKERSBURG    CLEAR     65  63  93 VRB5      29.88R
$$

WVZ006-241000-
Western West Virginia

CITY           SKY/WX    TMP DP  RH WIND       PRES   REMARKS
HUNTINGTON     CLOUDY    67  65  93 CALM      29.89F
$$

WVZ015-241000-
West Central West Virginia

CITY           SKY/WX    TMP DP  RH WIND       PRES   REMARKS
CHARLESTON     LGT RAIN  66  64  93 SW10      29.90R FOG
$$

WVZ022-031-241000-
North Central West Virginia

CITY           SKY/WX    TMP DP  RH WIND       PRES   REMARKS
CLARKSBURG     CLOUDY    66  63  90 W9        29.84R
MORGANTOWN     LGT RAIN  67  64  90 SW6       29.83R FOG
$$

WVZ025-035-042-045-241000-
Southern West Virginia

CITY           SKY/WX    TMP DP  RH WIND       PRES   REMARKS
BECKLEY        CLOUDY    62  61  96 W6        29.95R
LOGAN          CLOUDY    64  63  94 CALM      29.93R
BLUEFIELD      CLOUDY    60  58  92 W7        29.98R
LEWISBURG      CLOUDY    64  59  83 W8        29.91S
$$

WVZ047-241000-
Northern Mountains of West Virginia

CITY           SKY/WX    TMP DP  RH WIND       PRES   REMARKS
ELKINS         LGT RAIN  65  60  84 NW9       29.88R
$$

WVZ052-241000-
Eastern Panhandle of West Virginia

CITY           SKY/WX    TMP DP  RH WIND       PRES   REMARKS
MARTINSBURG    PTCLDY    70  65  84 VRB6      29.68R
PETERSBURG     CLOUDY    70  64  81 W7        29.78R
$$




USA.gov is the U.S. government's official web portal to all federal, state and local government web resources and services.